Location: Chandler
(33.3060°N, 111.8410°W)
Time: 18:22:02
(UTC-07:00)

Amateur Radio Satellites - All Passes

Search period start: 24 May 2015 17:52
Search period end: 25 May 2015 17:52
Location: Chandler, 33.3060°N, 111.8410°W

Satellite Date Start Highest point End Downlink Frequencies (MHz)
Time Altitude Azimuth
SRMSAT 24 May 17:52:06 17:54:26 12° 195° (SSW) 17:56:40 437.500
Cubesat XI-IV 24 May 18:07:47 18:13:05 85° 254° (WSW) 18:18:27 437.490
RS-15 24 May 18:31:02 18:42:47 77° 60° (ENE) 18:55:00 29.354- 29.394
PRISM 24 May 18:36:57 18:40:17 24° 96° (E) 18:43:44 437.425
HO-68 24 May 18:38:52 18:41:41 13° 59° (ENE) 18:44:58 435.675
BEESAT 3 24 May 18:43:18 18:47:07 37° 303° (WNW) 18:50:57 437.485
Cosmos 2491 24 May 18:55:52 19:04:07 49° 90° (E) 19:12:31 435.465 / 435.565
YUBILEINY 24 May 18:58:44 19:07:28 84° 84° (E) 19:16:11 435.215
AIST 2 24 May 19:01:22 19:05:34 68° 116° (ESE) 19:09:49 435.215
M-CUBED/EXP-1 PRIME 24 May 19:05:04 19:07:06 16° 99° (E) 19:09:16 437.505
DOVE 4 24 May 19:09:18 19:11:06 12° 66° (ENE) 19:13:13 437.250
BRITE-PL 24 May 19:15:14 19:19:38 34° 71° (ENE) 19:24:26 437.365/2234.400
AUBIESAT-1 24 May 19:15:26 19:17:48 19° 100° (E) 19:20:16 437.475
CUBESAT XI-V 24 May 19:18:44 19:23:11 43° 286° (WNW) 19:27:37 437.345
BEESAT 2 24 May 19:30:00 19:32:42 16° 310° (NW) 19:35:17 435.950
GOMX 1 24 May 19:30:57 19:35:19 32° 71° (ENE) 19:40:01 467.674
CUTE-I 24 May 19:31:20 19:33:53 13° 270° (W) 19:36:05 437.470
STRAND 1 24 May 19:34:39 19:39:49 85° 284° (WNW) 19:44:58 437.568
SEEDS 24 May 19:37:55 19:40:22 16° 70° (ENE) 19:42:59 437.485
COMPASS 1 24 May 19:54:43 19:57:41 20° 71° (ENE) 20:00:46 437.405
Cosmos 2504 24 May 19:57:07 20:00:37 15° 67° (ENE) 20:04:34 435.465 / 435.565
AAUSAT CUBESAT 2 24 May 20:08:39 20:12:00 24° 72° (ENE) 20:15:25 437.432
PRISM 24 May 20:12:27 20:15:39 21° 289° (WNW) 20:18:45 437.425
CUBEBUG 2 24 May 20:14:35 20:16:42 13° 68° (ENE) 20:19:06 437.445
HO-68 24 May 20:21:20 20:28:32 83° 74° (ENE) 20:35:45 435.675
ZACube-1 24 May 20:28:27 20:29:30 11° 67° (ENE) 20:30:51 437.345
M-CUBED/EXP-1 PRIME 24 May 20:39:34 20:41:58 18° 292° (WNW) 20:44:18 437.505
CINEMA 3 24 May 20:39:55 20:44:41 53° 75° (ENE) 20:49:35 145.822/145.860
CANX-2 24 May 20:41:06 20:45:20 61° 260° (W) 20:49:33 2200.000
AIST 2 24 May 20:43:14 20:44:39 11° 314° (NW) 20:45:52 435.215
DOVE 4 24 May 20:43:17 20:48:14 69° 260° (W) 20:53:28 437.250
Oscar 11 24 May 20:44:00 20:47:43 29° 73° (ENE) 20:51:29 145.826/435.025
CUTE 1.7 + AOD 2 24 May 20:45:03 20:49:17 61° 260° (W) 20:53:30 437.475
RS-15 24 May 20:45:14 20:54:28 26° 255° (WSW) 21:03:15 29.354- 29.394
AUBIESAT-1 24 May 20:50:24 20:52:32 16° 293° (WNW) 20:54:34 437.475
DELFI C3 24 May 20:52:45 20:55:59 24° 73° (ENE) 20:59:18 145.870
Cosmos 2491 24 May 20:53:41 21:01:18 31° 288° (WNW) 21:08:45 435.465 / 435.565
BRITE-PL 24 May 20:54:26 20:58:17 22° 268° (W) 21:02:13 437.365/2234.400
YUBILEINY 24 May 20:58:33 21:03:23 15° 278° (W) 21:07:34 435.215
AIST 1 24 May 20:58:46 21:02:57 57° 278° (W) 21:07:10
UWE-3 24 May 21:04:52 21:09:10 38° 73° (ENE) 21:13:31 435.000/436.395/437.385
GOMX 1 24 May 21:09:23 21:13:29 24° 267° (W) 21:17:39 467.674
SEEDS 24 May 21:12:01 21:15:55 34° 263° (W) 21:19:46 437.485
FUNcube-1 24 May 21:21:36 21:25:56 44° 74° (ENE) 21:30:19 145.935
COMPASS 1 24 May 21:29:37 21:33:13 26° 264° (W) 21:36:45 437.405
AAUSAT CUBESAT 2 24 May 21:44:19 21:47:34 21° 266° (W) 21:50:42 437.432
Cosmos 2504 24 May 21:47:45 21:54:56 75° 266° (W) 22:02:08 435.465 / 435.565
CUBEBUG 2 24 May 21:48:19 21:52:58 54° 261° (W) 21:57:40 437.445
UNISAT 6 24 May 22:00:50 22:03:05 14° 91° (E) 22:05:31 437.425
ZACube-1 24 May 22:00:50 22:05:24 62° 260° (W) 22:09:57 437.345
UKube-1 24 May 22:08:06 22:12:24 71° 76° (ENE) 22:16:43 .
50 SAT 24 May 22:10:44 22:14:26 38° 74° (ENE) 22:18:11 437.505
ESTCUBE 1 24 May 22:12:13 22:15:32 21° 71° (ENE) 22:18:59 437.505/2401.250
DX 1 24 May 22:13:10 22:17:30 89° 77° (ENE) 22:21:53 434.975-435.025
HO-68 24 May 22:13:27 22:17:08 14° 270° (W) 22:20:17 435.675
HUMSAT D 24 May 22:15:06 22:19:27 85° 79° (ENE) 22:23:47 437.325/437.525
VELOX 1 24 May 22:18:00 22:22:11 44° 74° (ENE) 22:26:25 145.980
CINEMA 3 24 May 22:19:35 22:22:15 14° 270° (W) 22:24:38 145.822/145.860
Oscar 11 24 May 22:20:45 22:23:55 19° 266° (W) 22:26:58 145.826/435.025
CUBEBUG 1 24 May 22:24:02 22:27:30 24° 71° (ENE) 22:31:04 437.445
DELFI C3 24 May 22:28:06 22:31:05 19° 266° (W) 22:33:58 145.870
QB50P1 24 May 22:32:16 22:34:28 14° 92° (E) 22:36:51 145.935-145.965
POLYITAN 1 24 May 22:32:49 22:35:06 15° 92° (E) 22:37:36 437.675
CUSAT 1 24 May 22:34:22 22:35:27 11° 57° (ENE) 22:37:02 437.405
ANTELSAT 24 May 22:42:30 22:46:43 46° 99° (E) 22:50:52 437.575/2403.000
UWE-3 24 May 22:42:40 22:45:51 17° 268° (W) 22:48:50 435.000/436.395/437.385
AISAT 24 May 22:48:28 22:52:53 75° 258° (WSW) 22:57:21 437.250
FUNcube-1 24 May 22:59:58 23:02:30 14° 269° (W) 23:04:49 145.935
NANOSAT C BR1 24 May 23:03:09 23:07:02 33° 97° (E) 23:10:54 145.865
QB50P2 24 May 23:09:13 23:13:17 42° 98° (E) 23:17:19 145.880/145.840
SPROUT 24 May 23:12:19 23:15:38 22° 71° (ENE) 23:19:02 437.525
TIGRISAT 24 May 23:16:24 23:20:46 68° 284° (WNW) 23:25:00 435.000
POPSAT HIP 1 24 May 23:21:59 23:26:13 59° 100° (E) 23:30:25 437.405
DANDE 24 May 23:25:38 23:31:54 27° 67° (ENE) 23:37:20 436.750
DUCHIFAT 1 24 May 23:25:54 23:30:09 65° 101° (ESE) 23:34:21 145.980
ISS 24 May 23:27:25 23:30:38 78° 136° (SE) 23:33:53 145.825
GONETS M04 24 May 23:27:45 23:34:56 29° 71° (ENE) 23:42:19
UNISAT 6 24 May 23:36:01 23:40:05 37° 287° (WNW) 23:44:03 437.425
TISAT 1 24 May 23:44:17 23:48:11 38° 74° (ENE) 23:52:10 437.305
50 SAT 24 May 23:47:37 23:49:21 12° 268° (W) 23:50:52 437.505
ESTCUBE 1 24 May 23:48:24 23:52:17 28° 264° (W) 23:56:05 437.505/2401.250
PCSat 24 May 23:56:25 00:00:22 22° 107° (ESE) 00:04:30 145.827
VELOX 1 24 May 23:56:53 23:59:01 13° 269° (W) 00:00:54 145.980
BUGSAT 1 24 May 23:59:45 00:04:01 71° 283° (WNW) 00:08:15 437.445
CUBEBUG 1 25 May 00:00:19 00:03:48 23° 265° (W) 00:07:13 437.445
QB50P1 25 May 00:06:32 00:10:31 37° 286° (WNW) 00:14:26 145.935-145.965
POLYITAN 1 25 May 00:07:14 00:11:12 36° 287° (WNW) 00:15:04 437.675
CUSAT 1 25 May 00:12:43 00:19:59 80° 80° (E) 00:25:30 437.405
ANTELSAT 25 May 00:21:11 00:23:07 12° 292° (WNW) 00:24:48 437.575/2403.000
NANOSAT C BR1 25 May 00:39:52 00:42:38 16° 290° (WNW) 00:45:11 145.865
QB50P2 25 May 00:46:39 00:48:50 13° 291° (WNW) 00:50:49 145.880/145.840
Oscar 19 25 May 00:46:41 00:49:21 15° 91° (E) 00:52:19 437.125/150
SPROUT 25 May 00:48:01 00:51:36 25° 265° (W) 00:55:08 437.525
VERMONT LUNAR 25 May 00:55:47 00:58:00 18° 144° (SE) 01:00:17 437.305
ITUPSAT 1 25 May 01:05:16 01:09:49 47° 74° (ENE) 01:14:23 437.325
ISS 25 May 01:06:08 01:07:27 12° 332° (NNW) 01:08:42 145.825
DANDE 25 May 01:08:13 01:15:37 48° 270° (W) 01:21:26 436.750
BEESAT 25 May 01:14:19 01:19:00 61° 74° (ENE) 01:23:42 436.000
TISAT 1 25 May 01:21:54 01:24:11 14° 268° (W) 01:26:14 437.305
SWISSCUBE 25 May 01:22:22 01:27:07 83° 75° (ENE) 01:31:53 437.505
GONETS M04 25 May 01:23:44 01:32:11 52° 269° (W) 01:40:29
O/OREOS (USA 219) 25 May 01:31:39 01:35:45 35° 66° (ENE) 01:39:52 437.305
PCSat 25 May 01:38:27 01:43:32 41° 301° (WNW) 01:48:38 145.827
KKS-1 25 May 01:55:37 01:59:19 27° 71° (ENE) 02:03:07 437.445
CUSAT 1 25 May 01:58:40 02:01:21 12° 280° (W) 02:03:23 437.405
Cosmos 2499 25 May 02:23:06 02:30:10 72° 82° (E) 02:37:21 435.465 / 435.565
SO-50 25 May 02:23:14 02:26:48 23° 111° (ESE) 02:30:36 436.795
Oscar 19 25 May 02:24:04 02:29:05 51° 287° (WNW) 02:34:02 437.125/150
VERMONT LUNAR 25 May 02:31:47 02:35:00 67° 336° (NNW) 02:38:11 437.305
ITAMSAT 1 25 May 02:33:01 02:38:05 51° 100° (E) 02:43:10 435.822/435.867
PHONESAT 2.4 25 May 02:33:45 02:36:51 31° 147° (SSE) 02:39:59 2401.200-2431.200
ITUPSAT 1 25 May 02:45:25 02:48:01 14° 268° (W) 02:50:20 437.325
BEESAT 25 May 02:56:17 02:57:18 10° 270° (W) 02:57:58 436.000
Gurwin Techsat 1B 25 May 02:57:38 03:02:58 86° 100° (E) 03:08:18 435.225
STARS 25 May 03:04:30 03:08:56 78° 259° (W) 03:13:24 437.465
BEESAT 3 25 May 03:05:46 03:09:27 32° 56° (NE) 03:13:06 437.485
MOZHAYETS 4 25 May 03:10:41 03:12:28 12° 68° (ENE) 03:14:31
O/OREOS (USA 219) 25 May 03:12:05 03:14:55 16° 259° (WSW) 03:17:33 437.305
AO-7 25 May 03:19:54 03:26:05 24° 94° (E) 03:32:39 29.400- 29.500
AIST 2 25 May 03:28:27 03:30:40 14° 49° (NE) 03:33:00 435.215
KKS-1 25 May 03:32:24 03:35:56 22° 265° (W) 03:39:24 437.445
BEESAT 2 25 May 03:51:15 03:55:22 89° 243° (WSW) 03:59:23 435.950
SO-50 25 May 04:02:59 04:07:12 32° 306° (NW) 04:11:29 436.795
JAS-2 25 May 04:07:53 04:13:01 64° 101° (E) 04:18:21 435.910
VERMONT LUNAR 25 May 04:09:52 04:12:32 23° 352° (N) 04:15:12 437.305
PHONESAT 2.4 25 May 04:11:32 04:14:55 47° 340° (NNW) 04:18:16 2401.200-2431.200
ITAMSAT 1 25 May 04:13:55 04:17:14 17° 293° (WNW) 04:20:18 435.822/435.867
HORYU 2 25 May 04:18:54 04:23:21 77° 284° (WNW) 04:27:45 437.375
Cosmos 2499 25 May 04:18:58 04:22:39 14° 276° (W) 04:25:51 435.465 / 435.565
BEESAT 3 25 May 04:44:36 04:47:11 16° 250° (WSW) 04:49:36 437.485
MOZHAYETS 4 25 May 04:44:50 04:49:18 52° 261° (W) 04:53:47
AIST 2 25 May 05:05:30 05:09:33 47° 246° (WSW) 05:13:30 435.215
AO-7 25 May 05:11:12 05:19:28 64° 290° (WNW) 05:27:39 29.400- 29.500
Cosmos 2491 25 May 05:12:55 05:18:27 19° 66° (ENE) 05:24:29 435.465 / 435.565
PRISM 25 May 05:25:44 05:26:26 11° 68° (ENE) 05:27:25 437.425
VERMONT LUNAR 25 May 05:47:36 05:50:19 25° 9° (N) 05:53:02 437.305
M-CUBED/EXP-1 PRIME 25 May 05:49:32 05:52:09 16° 67° (ENE) 05:54:48 437.505
PHONESAT 2.4 25 May 05:50:36 05:53:30 24° 357° (N) 05:56:23 2401.200-2431.200
JAS-2 25 May 05:55:45 05:57:45 12° 294° (WNW) 05:59:26 435.910
ISS 25 May 05:59:06 06:01:04 15° 31° (NNE) 06:03:05 145.825
AUBIESAT-1 25 May 05:59:27 06:02:18 18° 68° (ENE) 06:05:08 437.475
YUBILEINY 25 May 06:01:26 06:06:37 18° 83° (E) 06:12:21 435.215
CUTE-I 25 May 06:09:42 06:14:33 34° 97° (E) 06:19:25 437.470
CUBESAT XI-V 25 May 06:17:35 06:22:09 72° 259° (W) 06:26:46 437.345
Cubesat XI-IV 25 May 06:29:21 06:34:37 55° 100° (E) 06:39:53 437.490
RS-15 25 May 06:46:10 06:48:51 12° 101° (E) 06:52:46 29.354- 29.394
STRAND 1 25 May 06:46:18 06:51:23 90° 97° (E) 06:56:31 437.568
PRISM 25 May 06:57:33 07:01:31 49° 260° (W) 07:05:29 437.425
Cosmos 2491 25 May 07:07:34 07:16:25 77° 266° (W) 07:25:09 435.465 / 435.565
AO-7 25 May 07:08:33 07:10:53 11° 307° (NW) 07:12:35 29.400- 29.500
AIST 1 25 May 07:10:42 07:14:05 22° 76° (ENE) 07:17:34
M-CUBED/EXP-1 PRIME 25 May 07:22:42 07:26:48 36° 257° (WSW) 07:30:36 437.505
VERMONT LUNAR 25 May 07:24:36 07:27:48 82° 25° (NNE) 07:31:00 437.305
BRITE-PL 25 May 07:25:14 07:28:53 18° 90° (E) 07:32:39 437.365/2234.400
PHONESAT 2.4 25 May 07:28:59 07:32:10 33° 14° (NNE) 07:35:21 2401.200-2431.200
AUBIESAT-1 25 May 07:33:00 07:36:55 31° 257° (WSW) 07:40:32 437.475
ISS 25 May 07:34:32 07:37:43 50° 227° (SW) 07:40:53 145.825
GOMX 1 25 May 07:38:49 07:41:24 14° 88° (E) 07:44:13 467.674
CUTE-I 25 May 07:50:07 07:54:28 25° 291° (WNW) 07:58:41 437.470
YUBILEINY 25 May 07:53:54 08:02:41 75° 278° (W) 08:11:26 435.215
HO-68 25 May 07:55:24 08:00:02 19° 92° (E) 08:05:01 435.675
Cubesat XI-IV 25 May 08:11:01 08:14:19 16° 293° (WNW) 08:17:23 437.490
Cosmos 2504 25 May 08:30:53 08:35:11 16° 85° (E) 08:39:56 435.465 / 435.565
CANX-2 25 May 08:30:55 08:34:35 30° 96° (E) 08:38:19 2200.000
CUTE 1.7 + AOD 2 25 May 08:34:46 08:38:27 30° 96° (E) 08:42:10 437.475
CINEMA 3 25 May 08:40:48 08:43:45 17° 91° (E) 08:46:47 145.822/145.860
DOVE 4 25 May 08:47:13 08:52:08 47° 98° (E) 08:56:47 437.250
AIST 1 25 May 08:48:09 08:51:40 23° 270° (W) 08:55:07
RS-15 25 May 08:48:58 08:59:46 75° 115° (ESE) 09:10:48 29.354- 29.394
SEEDS 25 May 09:00:09 09:04:13 50° 99° (E) 09:08:16 437.485
BRITE-PL 25 May 09:02:16 09:07:43 49° 286° (WNW) 09:12:53 437.365/2234.400
VERMONT LUNAR 25 May 09:02:57 09:04:43 14° 217° (SW) 09:06:25 437.305
PHONESAT 2.4 25 May 09:07:01 09:10:25 59° 209° (SSW) 09:13:50 2401.200-2431.200
Cosmos 2491 25 May 09:09:56 09:12:05 11° 280° (W) 09:13:21 435.465 / 435.565
GOMX 1 25 May 09:14:44 09:20:00 56° 285° (WNW) 09:24:58 467.674
COMPASS 1 25 May 09:16:28 09:20:34 64° 100° (E) 09:24:41 437.405
FUNcube-1 25 May 09:17:10 09:18:00 11° 90° (E) 09:19:08 145.935
AAUSAT CUBESAT 2 25 May 09:30:14 09:34:23 82° 101° (E) 09:38:30 437.432
ANTELSAT 25 May 09:37:25 09:41:20 27° 72° (ENE) 09:45:19 437.575/2403.000
HO-68 25 May 09:41:15 09:48:20 65° 288° (WNW) 09:55:21 435.675
CUBEBUG 2 25 May 09:44:09 09:48:22 43° 98° (E) 09:52:28 437.445
NANOSAT C BR1 25 May 09:52:51 09:55:20 16° 70° (ENE) 09:58:01 145.865
ZACube-1 25 May 09:54:17 09:58:11 33° 97° (E) 10:02:01 437.345
YUBILEINY 25 May 09:58:29 10:01:20 11° 299° (WNW) 10:03:20 435.215
QB50P2 25 May 09:58:53 10:01:53 19° 71° (ENE) 10:05:02 145.880/145.840
UKube-1 25 May 10:01:01 10:03:41 16° 93° (E) 10:06:32 .
HUMSAT D 25 May 10:04:35 10:07:23 18° 93° (E) 10:10:18 437.325/437.525
DX 1 25 May 10:06:28 10:09:45 21° 95° (E) 10:13:08 434.975-435.025
CANX-2 25 May 10:07:28 10:10:20 18° 289° (WNW) 10:13:03 2200.000
DELFI C3 25 May 10:10:09 10:14:10 75° 101° (E) 10:18:11 145.870
TIGRISAT 25 May 10:10:20 10:14:58 63° 76° (ENE) 10:19:36 435.000
Oscar 11 25 May 10:10:47 10:15:06 77° 281° (WNW) 10:19:22 145.826/435.025
POPSAT HIP 1 25 May 10:11:05 10:14:35 26° 72° (ENE) 10:18:12 437.405
CUTE 1.7 + AOD 2 25 May 10:11:18 10:14:11 18° 289° (WNW) 10:16:55 437.475
DUCHIFAT 1 25 May 10:14:29 10:18:05 28° 72° (ENE) 10:21:45 145.980
VELOX 1 25 May 10:14:45 10:16:19 12° 91° (E) 10:18:09 145.980
CINEMA 3 25 May 10:16:48 10:21:09 36° 287° (WNW) 10:25:15 145.822/145.860
Cosmos 2504 25 May 10:19:24 10:27:58 81° 277° (W) 10:35:58 435.465 / 435.565
DOVE 4 25 May 10:26:16 10:29:28 16° 293° (WNW) 10:32:22 437.250
UNISAT 6 25 May 10:29:53 10:34:35 76° 259° (WSW) 10:39:17 437.425
PCSat 25 May 10:30:04 10:35:29 65° 63° (ENE) 10:40:51 145.827
UWE-3 25 May 10:35:25 10:39:43 55° 285° (WNW) 10:43:52 435.000/436.395/437.385
SEEDS 25 May 10:38:33 10:39:37 11° 292° (WNW) 10:40:26 437.485
AISAT 25 May 10:43:46 10:47:38 28° 96° (E) 10:51:32 437.250
BUGSAT 1 25 May 10:45:37 10:49:30 43° 74° (ENE) 10:53:30 437.445
FUNcube-1 25 May 10:50:32 10:54:42 47° 285° (WNW) 10:58:45 145.935
QB50P1 25 May 10:54:30 10:58:46 89° 239° (WSW) 11:03:04 145.935-145.965
POLYITAN 1 25 May 10:55:26 10:59:44 85° 256° (WSW) 11:04:04 437.675
JUGNU 25 May 10:58:27 11:02:18 18° 171° (S) 11:06:09 437.505
RS-15 25 May 11:04:05 11:13:21 29° 318° (NW) 11:22:33 29.354- 29.394
ANTELSAT 25 May 11:14:13 11:18:05 24° 265° (W) 11:21:49 437.575/2403.000
CUBEBUG 2 25 May 11:22:22 11:24:42 14° 292° (WNW) 11:26:47 437.445
50 SAT 25 May 11:25:34 11:29:26 73° 284° (WNW) 11:33:16 437.505
NANOSAT C BR1 25 May 11:26:59 11:30:54 35° 262° (W) 11:34:50 145.865
ZACube-1 25 May 11:31:31 11:34:17 16° 291° (WNW) 11:36:51 437.345
CUSAT 1 25 May 11:32:19 11:36:20 17° 82° (E) 11:41:09 437.405
QB50P2 25 May 11:33:53 11:37:37 28° 264° (W) 11:41:19 145.880/145.840
UKube-1 25 May 11:36:00 11:39:56 34° 288° (WNW) 11:43:50 .
HUMSAT D 25 May 11:39:37 11:43:11 27° 288° (WNW) 11:46:37 437.325/437.525
DX 1 25 May 11:42:15 11:46:00 27° 288° (WNW) 11:49:39 434.975-435.025
ESTCUBE 1 25 May 11:44:23 11:48:56 83° 104° (ESE) 11:53:29 437.505/2401.250
POPSAT HIP 1 25 May 11:47:10 11:50:27 21° 266° (W) 11:53:38 437.405
VELOX 1 25 May 11:48:52 11:53:12 48° 286° (WNW) 11:57:30 145.980
DUCHIFAT 1 25 May 11:50:47 11:53:54 19° 266° (W) 11:56:56 145.980
TIGRISAT 25 May 11:51:38 11:52:10 10° 271° (W) 11:52:21 435.000
CUBEBUG 1 25 May 11:52:09 11:56:38 89° 101° (E) 12:01:04 437.445
Oscar 19 25 May 11:59:53 12:02:41 15° 67° (ENE) 12:05:45 437.125/150
SRMSAT 25 May 12:12:34 12:15:56 16° 168° (SSE) 12:19:22 437.500
PCSat 25 May 12:15:54 12:18:24 13° 255° (WSW) 12:20:33 145.827
Cosmos 2504 25 May 12:19:26 12:22:40 12° 295° (WNW) 12:25:05 435.465 / 435.565
AISAT 25 May 12:20:38 12:24:05 21° 290° (WNW) 12:27:23 437.250
GONETS M04 25 May 12:23:09 12:30:56 38° 88° (E) 12:38:56
BUGSAT 1 25 May 12:23:51 12:25:17 11° 269° (W) 12:26:28 437.445
DANDE 25 May 12:28:57 12:34:52 38° 88° (E) 12:42:10 436.750
SO-50 25 May 12:37:46 12:42:44 75° 61° (ENE) 12:47:36 436.795
SPROUT 25 May 12:37:56 12:42:17 78° 102° (ESE) 12:46:35 437.525
JUGNU 25 May 12:46:18 12:50:42 22° 180° (S) 12:55:04 437.505
TISAT 1 25 May 13:08:13 13:12:27 63° 284° (WNW) 13:16:39 437.305
CUSAT 1 25 May 13:11:07 13:17:57 80° 279° (W) 13:26:10 437.405
ITUPSAT 1 25 May 13:11:09 13:14:10 17° 93° (E) 13:17:23 437.325
BEESAT 25 May 13:19:30 13:23:06 22° 94° (E) 13:26:51 436.000
SWISSCUBE 25 May 13:27:18 13:31:26 29° 96° (E) 13:35:38 437.505
RS-15 25 May 13:29:50 13:31:24 10° 352° (N) 13:32:44 29.354- 29.394
Oscar 19 25 May 13:36:32 13:41:38 55° 260° (W) 13:46:44 437.125/150
ITAMSAT 1 25 May 13:46:55 13:51:52 50° 74° (ENE) 13:56:53 435.822/435.867
SRMSAT 25 May 14:00:07 14:04:29 21° 178° (S) 14:08:52 437.500
DANDE 25 May 14:11:54 14:18:06 37° 289° (WNW) 14:25:26 436.750
Gurwin Techsat 1B 25 May 14:14:28 14:19:47 89° 77° (ENE) 14:25:07 435.225
AO-7 25 May 14:15:09 14:21:11 24° 61° (ENE) 14:27:33 29.400- 29.500
JAS-2 25 May 14:16:47 14:21:15 20° 69° (ENE) 14:25:39 435.910
GONETS M04 25 May 14:19:33 14:27:45 40° 285° (WNW) 14:35:51
JUGNU 25 May 14:35:21 14:39:05 17° 190° (S) 14:42:45 437.505
ITUPSAT 1 25 May 14:47:47 14:52:15 39° 287° (WNW) 14:56:39 437.325
Cosmos 2499 25 May 14:53:31 15:01:46 69° 94° (E) 15:09:27 435.465 / 435.565
BEESAT 25 May 14:56:47 15:00:59 31° 288° (WNW) 15:05:07 436.000
CUSAT 1 25 May 14:58:37 15:02:21 13° 300° (WNW) 15:05:41 437.405
STARS 25 May 14:58:58 15:02:40 26° 96° (E) 15:06:24 437.465
SWISSCUBE 25 May 15:05:22 15:09:10 23° 290° (WNW) 15:12:51 437.505
HORYU 2 25 May 15:12:49 15:17:13 57° 75° (ENE) 15:21:38 437.375
KKS-1 25 May 15:26:30 15:31:00 83° 283° (WNW) 15:35:27 437.445
ITAMSAT 1 25 May 15:28:39 15:31:44 15° 268° (W) 15:34:32 435.822/435.867
O/OREOS (USA 219) 25 May 15:39:14 15:43:46 86° 289° (WNW) 15:48:18 437.305
RS-15 25 May 15:44:06 15:50:52 17° 29° (NNE) 15:58:20 29.354- 29.394
SRMSAT 25 May 15:48:57 15:53:02 19° 188° (S) 15:57:06 437.500
JAS-2 25 May 15:59:09 16:06:06 60° 259° (W) 16:12:13 435.910
AO-7 25 May 16:05:09 16:13:23 68° 256° (WSW) 16:21:40 29.400- 29.500
STARS 25 May 16:35:32 16:39:00 22° 289° (WNW) 16:42:20 437.465
MOZHAYETS 4 25 May 16:44:02 16:48:27 49° 99° (E) 16:52:54
Cosmos 2499 25 May 16:49:48 16:55:33 19° 290° (WNW) 17:00:38 435.465 / 435.565
HORYU 2 25 May 16:53:46 16:54:17 10° 270° (W) 16:54:27 437.375
BEESAT 3 25 May 16:55:45 16:58:16 17° 111° (ESE) 17:00:57 437.485
CUTE-I 25 May 17:27:34 17:32:23 37° 72° (ENE) 17:37:17 437.470
SRMSAT 25 May 17:39:59 17:41:34 11° 196° (SSW) 17:43:01 437.500
BEESAT 2 25 May 17:40:55 17:44:49 46° 115° (ESE) 17:48:48 435.950
